Location: Newark
(44.8214°N, 8.8922°E)
Time: 09:24:04
(UTC+00:00)

ISS - Visible Passes

Search period start: 20 November 2019 00:00
Search period end: 30 November 2019 00:00
Orbit: 412 x 421 km, 51.6° (Epoch: 20 November)

Date Brightness Start Highest point End Pass type
(mag) Time Alt. Az. Time Alt. Az. Time Alt. Az.
20 Nov -1.2 17:28:49 10° SSE 17:29:12 11° SSE 17:29:12 11° SSE visible
21 Nov -1.4 18:14:58 10° SW 18:16:05 19° SW 18:16:05 19° SW visible
22 Nov -2.7 17:26:55 10° SSW 17:29:55 31° SE 17:29:56 31° SE visible
23 Nov -2.0 16:39:12 10° S 16:41:40 19° SE 16:43:42 12° E visible
23 Nov -1.8 18:14:45 10° WSW 18:16:37 30° WSW 18:16:37 30° WSW visible
24 Nov -3.9 17:26:20 10° SW 17:29:41 78° SSE 17:30:18 55° ENE visible
25 Nov -3.3 16:38:03 10° SW 16:41:17 47° SE 16:43:54 15° ENE visible
25 Nov -1.6 18:14:58 10° W 18:16:48 26° WNW 18:16:48 26° WNW visible
26 Nov -3.2 17:26:19 10° W 17:29:34 49° NNW 17:30:21 39° NNE visible
27 Nov -3.7 16:37:44 10° WSW 16:41:04 72° NNW 16:43:51 14° ENE visible
27 Nov -1.3 18:15:17 10° WNW 18:16:45 20° NW 18:16:45 20° NW visible
28 Nov -2.5 17:26:33 10° WNW 17:29:35 31° NNW 17:30:13 28° N visible
29 Nov -2.8 16:37:49 10° W 16:40:59 38° NNW 16:43:39 13° NE visible
29 Nov -1.1 18:15:29 10° NW 18:16:32 16° NW 18:16:32 16° NW visible
